Volver al catálogo

SATCOM K1 R/B

PAM-D2

ActivoHEO
NORAD 16483·ROCKET BODY·🇺🇸 United States

Lanzado Jan 12, 1986 desde Cape Canaveral Space Force Station

Loading…

Próximos Pases (próximas 24 horas)

TLE

ActualizadoSource: Space-Track

Época: Sep 12, 2026, 21:07 UTC

1 16483U 86003C   26255.88021328  .00000589  00000-0  50289-3 0  9990
2 16483  26.8549 132.4675 7068751 161.1730 251.5279  2.50015785356388

Sigue SATCOM K1 R/B en tiempo real con AllMySat

Download on the App Store